Terminal Aerodrome Forecast
Issued by NWS Cleveland, OH

Home | Current Version | Previous Version | Text Only | Print | Product List | Glossary Off
Versions: 1 2 3 4 5 6 7 8 9 10 11 12 13 14 15 16 17 18 19 20 21 22 23 24 25 26 27

000
FTUS41 KCLE 140500
TAFCLE
TAF
KCLE 140531Z 1406/1512 VRB04KT P6SM BKN035
     FM140800 09004KT P6SM BKN035
     FM141600 03005KT P6SM SCT035
     FM150700 18005KT P6SM FEW035 SCT250=

USA.gov is the U.S. government's official web portal to all federal, state and local government web resources and services.